Regional Weather Roundup
Issued by NWS Goodland, KS

Home | Current Version | Previous Version | Graphics & Text | Print | Product List | Glossary On
Versions: 1 2 3 4 5 6 7 8 9 10 11 12 13 14 15 16 17 18 19 20 21 22 23 24 25 26 27 28 29 30 31 32 33 34 35 36 37 38 39 40 41 42 43 44 45 46 47 48 49 50
000
ASUS43 KGLD 071008
RWRGLD

GOODLAND FORECAST AREA HOURLY WEATHER ROUNDUP
NATIONAL WEATHER SERVICE GOODLAND KS
400 AM MDT TUE JUL 07 2015

...OFFICIAL OBSERVATIONS...

CITY           SKY/WX    TMP DP  RH WIND       PRES   REMARKS
GOODLAND KS    PTCLDY    54  51  90 CALM      30.20F
HILL CITY KS   CLEAR     58  53  84 N10       30.14F HAZE
IMPERIAL NEB   MOCLDY    57  52  83 E3        30.20F
MCCOOK NEB     PTCLDY    57  54  89 N6        30.18F FOG
AKRON CO       CLOUDY    58  51  78 SE9       30.24F
BURLINGTON CO  PTCLDY    55  51  86 E6        30.22F FOG
LIMON CO       MOCLDY    54  51  90 CALM      30.27F FOG
$$

...UNOFFICIAL OBSERVATIONS...

CITY           SKY/WX    TMP DP  RH WIND       PRES   REMARKS
COLBY KS       CLEAR     57  54  88 N7        30.20S
GOVE KS          N/A     58  32  37 MISG        N/A
NORTON KS      CLEAR     54  48  82 N7        30.16S
SHARON SPRINGS   N/A     60  52  75 NE5         N/A
YUMA CO          N/A     56  52  88 CALM        N/A
$$



USA.gov is the U.S. government's official web portal to all federal, state and local government web resources and services.